Terminal Aerodrome Forecast
Issued by NWS

Home | Current Version | Previous Version | Text Only | Print | Product List | Glossary On
Versions: 1 2 3 4 5 6 7 8 9 10 11 12 13 14 15
000
FTUS45 KTFX 202300
TAFHVR
TAF
KHVR 202336Z 2100/2124 34010KT P6SM BKN070
     FM210200 30006KT P6SM VCTS SCT050CB BKN080
     FM210900 36007KT P6SM -SHRA SCT020 OVC040 PROB30 2115/2121 5SM
      -RA BR SCT015 OVC025=

USA.gov is the U.S. government's official web portal to all federal, state and local government web resources and services.